Location: Aultman
(40.9284°N, 81.4173°W)
Time: 15:10:56
(UTC+00:00)

Cosmos 1844 Rocket - Pass Details

Date: 24 January 2021
Orbit: 826 x 843 km, 71.0° (Epoch: 02 March)

Event Time Altitude Azimuth Distance (km) Brightness Sun altitude
Rises 23:45:05 0° 223° (SW) 3,388 6.8 -13.6°
Reaches altitude 10° 23:47:40 10° 230° (SW) 2,456 6.1 -14.1°
Maximum altitude 23:52:58 41° 300° (WNW) 1,199 3.9 -15.0°
Drops below altitude 10° 23:58:18 10° 10° (N) 2,462 4.9 -16.0°
Enters shadow 00:00:45 - 18° (NNE) 3,347 5.5 -16.5°
